Year,Month,Day,Hour,Minute,Value (Times are PST for temperature in C)
2019,04,26,00,00,9.90
2019,04,26,00,01,9.90
2019,04,26,00,02,9.80
2019,04,26,00,03,9.80
2019,04,26,00,04,9.80
2019,04,26,00,05,9.80
2019,04,26,00,06,9.80
2019,04,26,00,07,9.80
2019,04,26,00,08,9.80
2019,04,26,00,09,9.80
2019,04,26,00,10,9.70
2019,04,26,00,11,9.70
2019,04,26,00,12,9.70
2019,04,26,00,13,9.70
2019,04,26,00,14,9.70
2019,04,26,00,15,9.70
2019,04,26,00,16,9.70
2019,04,26,00,17,9.70
2019,04,26,00,18,9.70
2019,04,26,00,19,9.70
2019,04,26,00,20,9.70
2019,04,26,00,21,9.70
2019,04,26,00,22,9.70
2019,04,26,00,23,9.60
2019,04,26,00,24,9.60
2019,04,26,00,25,9.60
2019,04,26,00,26,9.60
2019,04,26,00,27,9.60
2019,04,26,00,28,9.50
2019,04,26,00,29,9.50
2019,04,26,00,30,9.50
2019,04,26,00,31,9.50
2019,04,26,00,32,9.50
2019,04,26,00,33,9.50
2019,04,26,00,34,9.50
2019,04,26,00,35,9.40
2019,04,26,00,36,9.40
2019,04,26,00,37,9.40
2019,04,26,00,38,9.40
2019,04,26,00,39,9.40
2019,04,26,00,40,9.40
2019,04,26,00,41,9.30
2019,04,26,00,42,9.30
2019,04,26,00,43,9.30
2019,04,26,00,44,9.30
2019,04,26,00,45,9.30
2019,04,26,00,46,9.30
2019,04,26,00,47,9.30
2019,04,26,00,48,9.20
2019,04,26,00,49,9.20
2019,04,26,00,50,9.20
2019,04,26,00,51,9.20
2019,04,26,00,52,9.20
2019,04,26,00,53,9.30
2019,04,26,00,54,9.30
2019,04,26,00,55,9.30
2019,04,26,00,56,9.30
2019,04,26,00,57,9.30
2019,04,26,00,58,9.30
2019,04,26,00,59,9.30
2019,04,26,01,00,9.20
2019,04,26,01,01,9.20
2019,04,26,01,02,9.20
2019,04,26,01,03,9.20
2019,04,26,01,04,9.20
2019,04,26,01,05,9.20
2019,04,26,01,06,9.20
2019,04,26,01,07,9.20
2019,04,26,01,08,9.20
2019,04,26,01,09,9.20
2019,04,26,01,10,9.20
2019,04,26,01,11,9.20
2019,04,26,01,12,9.10
2019,04,26,01,13,9.10
2019,04,26,01,14,9.10
2019,04,26,01,15,9.10
2019,04,26,01,16,9.10
2019,04,26,01,17,9.00
2019,04,26,01,18,9.00
2019,04,26,01,19,9.00
2019,04,26,01,20,9.00
2019,04,26,01,21,9.00
2019,04,26,01,22,8.90
2019,04,26,01,23,8.90
2019,04,26,01,24,8.90
2019,04,26,01,25,8.90
2019,04,26,01,26,8.90
2019,04,26,01,27,8.80
2019,04,26,01,28,8.80
2019,04,26,01,29,8.80
2019,04,26,01,30,8.80
2019,04,26,01,31,8.80
2019,04,26,01,32,8.70
2019,04,26,01,33,8.70
2019,04,26,01,34,8.70
2019,04,26,01,35,8.70
2019,04,26,01,36,8.70
2019,04,26,01,37,8.70
2019,04,26,01,38,8.70
2019,04,26,01,39,8.70
2019,04,26,01,40,8.70
2019,04,26,01,41,8.60
2019,04,26,01,42,8.60
2019,04,26,01,43,8.60
2019,04,26,01,44,8.60
2019,04,26,01,45,8.50
2019,04,26,01,46,8.50
2019,04,26,01,47,8.50
2019,04,26,01,48,8.50
2019,04,26,01,49,8.40
2019,04,26,01,50,8.40
2019,04,26,01,51,8.40
2019,04,26,01,52,8.40
2019,04,26,01,53,8.40
2019,04,26,01,54,8.40
2019,04,26,01,55,8.40
2019,04,26,01,56,8.30
2019,04,26,01,57,8.30
2019,04,26,01,58,8.30
2019,04,26,01,59,8.30
2019,04,26,02,00,8.30
2019,04,26,02,01,8.30
2019,04,26,02,02,8.20
2019,04,26,02,03,8.20
2019,04,26,02,04,8.20
2019,04,26,02,05,8.20
2019,04,26,02,06,8.20
2019,04,26,02,07,8.20
2019,04,26,02,08,8.20
2019,04,26,02,09,8.20
2019,04,26,02,10,8.20
2019,04,26,02,11,8.20
2019,04,26,02,12,8.10
2019,04,26,02,13,8.10
2019,04,26,02,14,8.10
2019,04,26,02,15,8.00
2019,04,26,02,16,8.00
2019,04,26,02,17,8.00
2019,04,26,02,18,8.00
2019,04,26,02,19,7.90
2019,04,26,02,20,7.90
2019,04,26,02,21,7.80
2019,04,26,02,22,7.80
2019,04,26,02,23,7.80
2019,04,26,02,24,7.80
2019,04,26,02,25,7.80
2019,04,26,02,26,7.70
2019,04,26,02,27,7.70
2019,04,26,02,28,7.70
2019,04,26,02,29,7.60
2019,04,26,02,30,7.60
2019,04,26,02,31,7.60
2019,04,26,02,32,7.50
2019,04,26,02,33,7.50
2019,04,26,02,34,7.50
2019,04,26,02,35,7.50
2019,04,26,02,36,7.50
2019,04,26,02,37,7.40
2019,04,26,02,38,7.40
2019,04,26,02,39,7.40
2019,04,26,02,40,7.40
2019,04,26,02,41,7.40
2019,04,26,02,42,7.30
2019,04,26,02,43,7.30
2019,04,26,02,44,7.30
2019,04,26,02,45,7.30
2019,04,26,02,46,7.30
2019,04,26,02,47,7.30
2019,04,26,02,48,7.30
2019,04,26,02,49,7.30
2019,04,26,02,50,7.30
2019,04,26,02,51,7.30
2019,04,26,02,52,7.30
2019,04,26,02,53,7.30
2019,04,26,02,54,7.20
2019,04,26,02,55,7.20
2019,04,26,02,56,7.20
2019,04,26,02,57,7.20
2019,04,26,02,58,7.20
2019,04,26,02,59,7.20
2019,04,26,03,00,7.10
2019,04,26,03,01,7.10
2019,04,26,03,02,7.10
2019,04,26,03,03,7.10
2019,04,26,03,04,7.00
2019,04,26,03,05,7.00
2019,04,26,03,06,7.00
2019,04,26,03,07,7.00
2019,04,26,03,08,7.00
2019,04,26,03,09,7.00
2019,04,26,03,10,6.90
2019,04,26,03,11,6.90
2019,04,26,03,12,6.90
2019,04,26,03,13,6.80
2019,04,26,03,14,6.80
2019,04,26,03,15,6.80
2019,04,26,03,16,6.80
2019,04,26,03,17,6.80
2019,04,26,03,18,6.80
2019,04,26,03,19,6.70
2019,04,26,03,20,6.70
2019,04,26,03,21,6.70
2019,04,26,03,22,6.70
2019,04,26,03,23,6.60
2019,04,26,03,24,6.60
2019,04,26,03,25,6.60
2019,04,26,03,26,6.60
2019,04,26,03,27,6.60
2019,04,26,03,28,6.60
2019,04,26,03,29,6.60
2019,04,26,03,30,6.60
2019,04,26,03,31,6.60
2019,04,26,03,32,6.60
2019,04,26,03,33,6.60
2019,04,26,03,34,6.60
2019,04,26,03,35,6.60
2019,04,26,03,36,6.60
2019,04,26,03,37,6.60
2019,04,26,03,38,6.60
2019,04,26,03,39,6.60
2019,04,26,03,40,6.50
2019,04,26,03,41,6.40
2019,04,26,03,42,6.40
2019,04,26,03,43,6.40
2019,04,26,03,44,6.40
2019,04,26,03,45,6.40
2019,04,26,03,46,6.40
2019,04,26,03,47,6.40
2019,04,26,03,48,6.40
2019,04,26,03,49,6.40
2019,04,26,03,50,6.40
2019,04,26,03,51,6.40
2019,04,26,03,52,6.40
2019,04,26,03,53,6.40
2019,04,26,03,54,6.40
2019,04,26,03,55,6.40
2019,04,26,03,56,6.40
2019,04,26,03,57,6.40
2019,04,26,03,58,6.30
2019,04,26,03,59,6.30
2019,04,26,04,00,6.30
2019,04,26,04,01,6.30
2019,04,26,04,02,6.30
2019,04,26,04,03,6.20
2019,04,26,04,04,6.20
2019,04,26,04,05,6.20
2019,04,26,04,06,6.20
2019,04,26,04,07,6.20
2019,04,26,04,08,6.20
2019,04,26,04,09,6.20
2019,04,26,04,10,6.10
2019,04,26,04,11,6.10
2019,04,26,04,12,6.10
2019,04,26,04,13,6.00
2019,04,26,04,14,6.00
2019,04,26,04,15,6.00
2019,04,26,04,16,6.00
2019,04,26,04,17,5.90
2019,04,26,04,18,5.90
2019,04,26,04,19,5.90
2019,04,26,04,20,5.80
2019,04,26,04,21,5.80
2019,04,26,04,22,5.70
2019,04,26,04,23,5.70
2019,04,26,04,24,5.70
2019,04,26,04,25,5.70
2019,04,26,04,26,5.70
2019,04,26,04,27,5.70
2019,04,26,04,28,5.70
2019,04,26,04,29,5.70
2019,04,26,04,30,5.70
2019,04,26,04,31,5.70
2019,04,26,04,32,5.70
2019,04,26,04,33,5.70
2019,04,26,04,34,5.70
2019,04,26,04,35,5.70
2019,04,26,04,36,5.70
2019,04,26,04,37,5.70
2019,04,26,04,38,5.70
2019,04,26,04,39,5.70
2019,04,26,04,40,5.70
2019,04,26,04,41,5.70
2019,04,26,04,42,5.70
2019,04,26,04,43,5.70
2019,04,26,04,44,5.70
2019,04,26,04,45,5.70
2019,04,26,04,46,5.70
2019,04,26,04,47,5.70
2019,04,26,04,48,5.70
2019,04,26,04,49,5.70
2019,04,26,04,50,5.70
2019,04,26,04,51,5.70
2019,04,26,04,52,5.70
2019,04,26,04,53,5.70
2019,04,26,04,54,5.70
2019,04,26,04,55,5.70
2019,04,26,04,56,5.70
2019,04,26,04,57,5.70
2019,04,26,04,58,5.70
2019,04,26,04,59,5.70
2019,04,26,05,00,5.70
2019,04,26,05,01,5.60
2019,04,26,05,02,5.60
2019,04,26,05,03,5.60
2019,04,26,05,04,5.60
2019,04,26,05,05,5.50
2019,04,26,05,06,5.50
2019,04,26,05,07,5.50
2019,04,26,05,08,5.50
2019,04,26,05,09,5.50
2019,04,26,05,10,5.40
2019,04,26,05,11,5.40
2019,04,26,05,12,5.40
2019,04,26,05,13,5.40
2019,04,26,05,14,5.40
2019,04,26,05,15,5.30
2019,04,26,05,16,5.30
2019,04,26,05,17,5.30
2019,04,26,05,18,5.30
2019,04,26,05,19,5.30
2019,04,26,05,20,5.30
2019,04,26,05,21,5.30
2019,04,26,05,22,5.30
2019,04,26,05,23,5.30
2019,04,26,05,24,5.30
2019,04,26,05,25,5.30
2019,04,26,05,26,5.20
2019,04,26,05,27,5.20
2019,04,26,05,28,5.20
2019,04,26,05,29,5.20
2019,04,26,05,30,5.20
2019,04,26,05,31,5.20
2019,04,26,05,32,5.20
2019,04,26,05,33,5.20
2019,04,26,05,34,5.20
2019,04,26,05,35,5.20
2019,04,26,05,36,5.20
2019,04,26,05,37,5.20
2019,04,26,05,38,5.10
2019,04,26,05,39,5.10
2019,04,26,05,40,5.10
2019,04,26,05,41,5.10
2019,04,26,05,42,5.10
2019,04,26,05,43,5.10
2019,04,26,05,44,5.10
2019,04,26,05,45,5.10
2019,04,26,05,46,5.10
2019,04,26,05,47,5.10
2019,04,26,05,48,5.10
2019,04,26,05,49,5.10
2019,04,26,05,50,5.10
2019,04,26,05,51,5.10
2019,04,26,05,52,5.10
2019,04,26,05,53,5.10
2019,04,26,05,54,5.10
2019,04,26,05,55,5.00
2019,04,26,05,56,4.90
2019,04,26,05,57,4.90
2019,04,26,05,58,4.90
2019,04,26,05,59,4.90
2019,04,26,06,00,4.90
2019,04,26,06,01,4.90
2019,04,26,06,02,4.90
2019,04,26,06,03,4.90
2019,04,26,06,04,4.80
2019,04,26,06,05,4.80
2019,04,26,06,06,4.80
2019,04,26,06,07,4.80
2019,04,26,06,08,4.80
2019,04,26,06,09,4.70
2019,04,26,06,10,4.70
2019,04,26,06,11,4.70
2019,04,26,06,12,4.70
2019,04,26,06,13,4.70
2019,04,26,06,14,4.70
2019,04,26,06,15,4.70
2019,04,26,06,16,4.70
2019,04,26,06,17,4.70
2019,04,26,06,18,4.70
2019,04,26,06,19,4.70
2019,04,26,06,20,4.70
2019,04,26,06,21,4.70
2019,04,26,06,22,4.70
2019,04,26,06,23,4.70
2019,04,26,06,24,4.70
2019,04,26,06,25,4.80
2019,04,26,06,26,4.80
2019,04,26,06,27,4.80
2019,04,26,06,28,4.80
2019,04,26,06,29,4.80
2019,04,26,06,30,4.80
2019,04,26,06,31,4.80
2019,04,26,06,32,4.90
2019,04,26,06,33,4.90
2019,04,26,06,34,4.90
2019,04,26,06,35,4.90
2019,04,26,06,36,5.00
2019,04,26,06,37,5.10
2019,04,26,06,38,5.10
2019,04,26,06,39,5.10
2019,04,26,06,40,5.10
2019,04,26,06,41,5.20
2019,04,26,06,42,5.30
2019,04,26,06,43,5.30
2019,04,26,06,44,5.30
2019,04,26,06,45,5.30
2019,04,26,06,46,5.30
2019,04,26,06,47,5.30
2019,04,26,06,48,5.30
2019,04,26,06,49,5.30
2019,04,26,06,50,5.30
2019,04,26,06,51,5.30
2019,04,26,06,52,5.30
2019,04,26,06,53,5.30
2019,04,26,06,54,5.30
2019,04,26,06,55,5.30
2019,04,26,06,56,5.30
2019,04,26,06,57,5.30
2019,04,26,06,58,5.30
2019,04,26,06,59,5.30
2019,04,26,07,00,5.30
2019,04,26,07,01,5.30
2019,04,26,07,02,5.40
2019,04,26,07,03,5.40
2019,04,26,07,04,5.40
2019,04,26,07,05,5.50
2019,04,26,07,06,5.50
2019,04,26,07,07,5.60
2019,04,26,07,08,5.70
2019,04,26,07,09,5.70
2019,04,26,07,10,5.80
2019,04,26,07,11,5.80
2019,04,26,07,12,5.80
2019,04,26,07,13,5.80
2019,04,26,07,14,5.80
2019,04,26,07,15,5.80
2019,04,26,07,16,5.80
2019,04,26,07,17,5.80
2019,04,26,07,18,5.90
2019,04,26,07,19,5.90
2019,04,26,07,20,6.00
2019,04,26,07,21,6.10
2019,04,26,07,22,6.20
2019,04,26,07,23,6.20
2019,04,26,07,24,6.30
2019,04,26,07,25,6.40
2019,04,26,07,26,6.40
2019,04,26,07,27,6.50
2019,04,26,07,28,6.60
2019,04,26,07,29,6.60
2019,04,26,07,30,6.70
2019,04,26,07,31,6.80
2019,04,26,07,32,6.80
2019,04,26,07,33,6.90
2019,04,26,07,34,7.00
2019,04,26,07,35,7.10
2019,04,26,07,36,7.20
2019,04,26,07,37,7.30
2019,04,26,07,38,7.40
2019,04,26,07,39,7.50
2019,04,26,07,40,7.50
2019,04,26,07,41,7.60
2019,04,26,07,42,7.70
2019,04,26,07,43,7.80
2019,04,26,07,44,7.80
2019,04,26,07,45,7.80
2019,04,26,07,46,7.90
2019,04,26,07,47,7.90
2019,04,26,07,48,8.00
2019,04,26,07,49,8.00
2019,04,26,07,50,8.10
2019,04,26,07,51,8.10
2019,04,26,07,52,8.20
2019,04,26,07,53,8.30
2019,04,26,07,54,8.30
2019,04,26,07,55,8.40
2019,04,26,07,56,8.40
2019,04,26,07,57,8.50
2019,04,26,07,58,8.50
2019,04,26,07,59,8.50
2019,04,26,08,00,8.60
2019,04,26,08,01,8.60
2019,04,26,08,02,8.60
2019,04,26,08,03,8.60
2019,04,26,08,04,8.60
2019,04,26,08,05,8.60
2019,04,26,08,06,8.60
2019,04,26,08,07,8.60
2019,04,26,08,08,8.60
2019,04,26,08,09,8.60
2019,04,26,08,10,8.70
2019,04,26,08,11,8.70
2019,04,26,08,12,8.70
2019,04,26,08,13,8.70
2019,04,26,08,14,8.80
2019,04,26,08,15,8.90
2019,04,26,08,16,8.90
2019,04,26,08,17,9.00
2019,04,26,08,18,9.10
2019,04,26,08,19,9.10
2019,04,26,08,20,9.20
2019,04,26,08,21,9.20
2019,04,26,08,22,9.30
2019,04,26,08,23,9.30
2019,04,26,08,24,9.40
2019,04,26,08,25,9.40
2019,04,26,08,26,9.50
2019,04,26,08,27,9.50
2019,04,26,08,28,9.60
2019,04,26,08,29,9.70
2019,04,26,08,30,9.70
2019,04,26,08,31,9.70
2019,04,26,08,32,9.80
2019,04,26,08,33,9.80
2019,04,26,08,34,9.90
2019,04,26,08,35,9.90
2019,04,26,08,36,9.90
2019,04,26,08,37,9.90
2019,04,26,08,38,10.00
2019,04,26,08,39,10.10
2019,04,26,08,40,10.10
2019,04,26,08,41,10.20
2019,04,26,08,42,10.20
2019,04,26,08,43,10.30
2019,04,26,08,44,10.30
2019,04,26,08,45,10.40
2019,04,26,08,46,10.50
2019,04,26,08,47,10.60
2019,04,26,08,48,10.60
2019,04,26,08,49,10.70
2019,04,26,08,50,10.70
2019,04,26,08,51,10.80
2019,04,26,08,52,10.90
2019,04,26,08,53,11.10
2019,04,26,08,54,11.20
2019,04,26,08,55,11.20
2019,04,26,08,56,11.30
2019,04,26,08,57,11.40
2019,04,26,08,58,11.60
2019,04,26,08,59,11.60
2019,04,26,09,00,11.70
2019,04,26,09,01,11.80
2019,04,26,09,02,11.80
2019,04,26,09,03,11.90
2019,04,26,09,04,12.00
2019,04,26,09,05,12.10
2019,04,26,09,06,12.00
2019,04,26,09,07,12.00
2019,04,26,09,08,12.00
2019,04,26,09,09,12.10
2019,04,26,09,10,12.10
2019,04,26,09,11,12.00
2019,04,26,09,12,12.00
2019,04,26,09,13,11.90
2019,04,26,09,14,11.80
2019,04,26,09,15,11.80
2019,04,26,09,16,11.70
2019,04,26,09,17,11.70
2019,04,26,09,18,11.60
2019,04,26,09,19,11.60
2019,04,26,09,20,11.60
2019,04,26,09,21,11.60
2019,04,26,09,22,11.50
2019,04,26,09,23,11.40
2019,04,26,09,24,11.40
2019,04,26,09,25,11.40
2019,04,26,09,26,11.40
2019,04,26,09,27,11.30
2019,04,26,09,28,11.30
2019,04,26,09,29,11.40
2019,04,26,09,30,11.40
2019,04,26,09,31,11.40
2019,04,26,09,32,11.40
2019,04,26,09,33,11.40
2019,04,26,09,34,11.40
2019,04,26,09,35,11.40
2019,04,26,09,36,11.40
2019,04,26,09,37,11.40
2019,04,26,09,38,11.40
2019,04,26,09,39,11.40
2019,04,26,09,40,11.40
2019,04,26,09,41,11.40
2019,04,26,09,42,11.40
2019,04,26,09,43,11.40
2019,04,26,09,44,11.40
2019,04,26,09,45,11.40
2019,04,26,09,46,11.40
2019,04,26,09,47,11.40
2019,04,26,09,48,11.40
2019,04,26,09,49,11.40
2019,04,26,09,50,11.40
2019,04,26,09,51,11.40
2019,04,26,09,52,11.40
2019,04,26,09,53,11.40
2019,04,26,09,54,11.40
2019,04,26,09,55,11.40
2019,04,26,09,56,11.40
2019,04,26,09,57,11.40
2019,04,26,09,58,11.60
2019,04,26,09,59,11.60
2019,04,26,10,00,11.60
2019,04,26,10,01,11.60
2019,04,26,10,02,11.60
2019,04,26,10,03,11.60
2019,04,26,10,04,11.60
2019,04,26,10,05,11.60
2019,04,26,10,06,11.70
2019,04,26,10,07,11.80
2019,04,26,10,08,11.80
2019,04,26,10,09,11.80
2019,04,26,10,10,11.80
2019,04,26,10,11,11.80
2019,04,26,10,12,11.80
2019,04,26,10,13,11.80
2019,04,26,10,14,11.70
2019,04,26,10,15,11.70
2019,04,26,10,16,11.60
2019,04,26,10,17,11.60
2019,04,26,10,18,11.60
2019,04,26,10,19,11.60
2019,04,26,10,20,11.60
2019,04,26,10,21,11.70
2019,04,26,10,22,11.70
2019,04,26,10,23,11.60
2019,04,26,10,24,11.70
2019,04,26,10,25,11.70
2019,04,26,10,26,11.70
2019,04,26,10,27,11.70
2019,04,26,10,28,11.70
2019,04,26,10,29,11.70
2019,04,26,10,30,11.70
2019,04,26,10,31,11.60
2019,04,26,10,32,11.40
2019,04,26,10,33,11.40
2019,04,26,10,34,11.50
2019,04,26,10,35,11.60
2019,04,26,10,36,11.60
2019,04,26,10,37,11.60
2019,04,26,10,38,11.60
2019,04,26,10,39,11.60
2019,04,26,10,40,11.60
2019,04,26,10,41,11.60
2019,04,26,10,42,11.60
2019,04,26,10,43,11.50
2019,04,26,10,44,11.40
2019,04,26,10,45,11.50
2019,04,26,10,46,11.60
2019,04,26,10,47,11.60
2019,04,26,10,48,11.60
2019,04,26,10,49,11.70
2019,04,26,10,50,11.80
2019,04,26,10,51,11.80
2019,04,26,10,52,11.80
2019,04,26,10,53,11.70
2019,04,26,10,54,11.70
2019,04,26,10,55,11.70
2019,04,26,10,56,11.70
2019,04,26,10,57,11.70
2019,04,26,10,58,11.80
2019,04,26,10,59,11.80
2019,04,26,11,00,11.80
2019,04,26,11,01,11.80
2019,04,26,11,02,11.80
2019,04,26,11,03,11.80
2019,04,26,11,04,11.80
2019,04,26,11,05,11.80
2019,04,26,11,06,11.80
2019,04,26,11,07,11.70
2019,04,26,11,08,11.60
2019,04,26,11,09,11.50
2019,04,26,11,10,11.40
2019,04,26,11,11,11.40
2019,04,26,11,12,11.40
2019,04,26,11,13,11.30
2019,04,26,11,14,11.30
2019,04,26,11,15,11.30
2019,04,26,11,16,11.30
2019,04,26,11,17,11.30
2019,04,26,11,18,11.30
2019,04,26,11,19,11.40
2019,04,26,11,20,11.50
2019,04,26,11,21,11.40
2019,04,26,11,22,11.40
2019,04,26,11,23,11.40
2019,04,26,11,24,11.40
2019,04,26,11,25,11.40
2019,04,26,11,26,11.40
2019,04,26,11,27,11.50
2019,04,26,11,28,11.50
2019,04,26,11,29,11.50
2019,04,26,11,30,11.60
2019,04,26,11,31,11.60
2019,04,26,11,32,11.60
2019,04,26,11,33,11.70
2019,04,26,11,34,11.80
2019,04,26,11,35,11.80
2019,04,26,11,36,11.90
2019,04,26,11,37,11.90
2019,04,26,11,38,12.00
2019,04,26,11,39,12.10
2019,04,26,11,40,12.20
2019,04,26,11,41,12.20
2019,04,26,11,42,12.30
2019,04,26,11,43,12.20
2019,04,26,11,44,12.20
2019,04,26,11,45,12.20
2019,04,26,11,46,12.20
2019,04,26,11,47,12.20
2019,04,26,11,48,12.20
2019,04,26,11,49,12.20
2019,04,26,11,50,12.30
2019,04,26,11,51,12.40
2019,04,26,11,52,12.50
2019,04,26,11,53,12.50
2019,04,26,11,54,12.60
2019,04,26,11,55,12.60
2019,04,26,11,56,12.80
2019,04,26,11,57,12.90
2019,04,26,11,58,13.10
2019,04,26,11,59,13.10
2019,04,26,12,00,13.00
2019,04,26,12,01,13.00
2019,04,26,12,02,13.10
2019,04,26,12,03,13.10
2019,04,26,12,04,13.10
2019,04,26,12,05,13.00
2019,04,26,12,06,13.00
2019,04,26,12,07,13.00
2019,04,26,12,08,13.00
2019,04,26,12,09,13.00
2019,04,26,12,10,13.00
2019,04,26,12,11,13.00
2019,04,26,12,12,12.90
2019,04,26,12,13,12.80
2019,04,26,12,14,12.80
2019,04,26,12,15,12.80
2019,04,26,12,16,12.80
2019,04,26,12,17,12.80
2019,04,26,12,18,12.70
2019,04,26,12,19,12.70
2019,04,26,12,20,12.60
2019,04,26,12,21,12.60
2019,04,26,12,22,12.60
2019,04,26,12,23,12.70
2019,04,26,12,24,12.70
2019,04,26,12,25,12.60
2019,04,26,12,26,12.50
2019,04,26,12,27,12.50
2019,04,26,12,28,12.40
2019,04,26,12,29,12.40
2019,04,26,12,30,12.30
2019,04,26,12,31,12.30
2019,04,26,12,32,12.20
2019,04,26,12,33,12.20
2019,04,26,12,34,12.20
2019,04,26,12,35,12.30
2019,04,26,12,36,12.30
2019,04,26,12,37,12.20
2019,04,26,12,38,12.30
2019,04,26,12,39,12.30
2019,04,26,12,40,12.30
2019,04,26,12,41,12.30
2019,04,26,12,42,12.30
2019,04,26,12,43,12.30
2019,04,26,12,44,12.30
2019,04,26,12,45,12.30
2019,04,26,12,46,12.30
2019,04,26,12,47,12.20
2019,04,26,12,48,12.20
2019,04,26,12,49,12.20
2019,04,26,12,50,12.20
2019,04,26,12,51,12.10
2019,04,26,12,52,12.10
2019,04,26,12,53,12.20
2019,04,26,12,54,12.20
2019,04,26,12,55,12.20
2019,04,26,12,56,12.20
2019,04,26,12,57,12.30
2019,04,26,12,58,12.30
2019,04,26,12,59,12.30
2019,04,26,13,00,12.30
2019,04,26,13,01,12.30
2019,04,26,13,02,12.30
2019,04,26,13,03,12.30
2019,04,26,13,04,12.40
2019,04,26,13,05,12.50
2019,04,26,13,06,12.60
2019,04,26,13,07,12.70
2019,04,26,13,08,12.70
2019,04,26,13,09,12.70
2019,04,26,13,10,12.70
2019,04,26,13,11,12.70
2019,04,26,13,12,12.60
2019,04,26,13,13,12.60
2019,04,26,13,14,12.50
2019,04,26,13,15,12.40
2019,04,26,13,16,12.40
2019,04,26,13,17,12.50
2019,04,26,13,18,12.50
2019,04,26,13,19,12.50
2019,04,26,13,20,12.40
2019,04,26,13,21,12.40
2019,04,26,13,22,12.30
2019,04,26,13,23,12.30
2019,04,26,13,24,12.30
2019,04,26,13,25,12.20
2019,04,26,13,26,12.20
2019,04,26,13,27,12.10
2019,04,26,13,28,12.10
2019,04,26,13,29,12.10
2019,04,26,13,30,12.10
2019,04,26,13,31,12.10
2019,04,26,13,32,12.10
2019,04,26,13,33,12.10
2019,04,26,13,34,12.00
2019,04,26,13,35,11.90
2019,04,26,13,36,11.90
2019,04,26,13,37,11.90
2019,04,26,13,38,11.90
2019,04,26,13,39,12.00
2019,04,26,13,40,12.00
2019,04,26,13,41,12.10
2019,04,26,13,42,12.10
2019,04,26,13,43,12.20
2019,04,26,13,44,12.30
2019,04,26,13,45,12.40
2019,04,26,13,46,12.50
2019,04,26,13,47,12.70
2019,04,26,13,48,12.70
2019,04,26,13,49,12.60
2019,04,26,13,50,12.60
2019,04,26,13,51,12.50
2019,04,26,13,52,12.50
2019,04,26,13,53,12.50
2019,04,26,13,54,12.40
2019,04,26,13,55,12.30
2019,04,26,13,56,12.30
2019,04,26,13,57,12.30
2019,04,26,13,58,12.40
2019,04,26,13,59,12.40
2019,04,26,14,00,12.40
2019,04,26,14,01,12.40
2019,04,26,14,02,12.50
2019,04,26,14,03,12.50
2019,04,26,14,04,12.50
2019,04,26,14,05,12.50
2019,04,26,14,06,12.40
2019,04,26,14,07,12.40
2019,04,26,14,08,12.40
2019,04,26,14,09,12.40
2019,04,26,14,10,12.40
2019,04,26,14,11,12.40
2019,04,26,14,12,12.40
2019,04,26,14,13,12.40
2019,04,26,14,14,12.30
2019,04,26,14,15,12.40
2019,04,26,14,16,12.40
2019,04,26,14,17,12.50
2019,04,26,14,18,12.60
2019,04,26,14,19,12.60
2019,04,26,14,20,12.70
2019,04,26,14,21,12.70
2019,04,26,14,22,12.70
2019,04,26,14,23,12.70
2019,04,26,14,24,12.70
2019,04,26,14,25,12.60
2019,04,26,14,26,12.60
2019,04,26,14,27,12.50
2019,04,26,14,28,12.50
2019,04,26,14,29,12.40
2019,04,26,14,30,12.40
2019,04,26,14,31,12.40
2019,04,26,14,32,12.40
2019,04,26,14,33,12.40
2019,04,26,14,34,12.30
2019,04,26,14,35,12.30
2019,04,26,14,36,12.30
2019,04,26,14,37,12.30
2019,04,26,14,38,12.40
2019,04,26,14,39,12.40
2019,04,26,14,40,12.40
2019,04,26,14,41,12.40
2019,04,26,14,42,12.30
2019,04,26,14,43,12.30
2019,04,26,14,44,12.30
2019,04,26,14,45,12.40
2019,04,26,14,46,12.40
2019,04,26,14,47,12.50
2019,04,26,14,48,12.50
2019,04,26,14,49,12.50
2019,04,26,14,50,12.50
2019,04,26,14,51,12.50
2019,04,26,14,52,12.40
2019,04,26,14,53,12.40
2019,04,26,14,54,12.40
2019,04,26,14,55,12.30
2019,04,26,14,56,12.30
2019,04,26,14,57,12.30
2019,04,26,14,58,12.30
2019,04,26,14,59,12.30
2019,04,26,15,00,12.30
2019,04,26,15,01,12.40
2019,04,26,15,02,12.40
2019,04,26,15,03,12.40
2019,04,26,15,04,12.30
2019,04,26,15,05,12.30
2019,04,26,15,06,12.20
2019,04,26,15,07,12.20
2019,04,26,15,08,12.10
2019,04,26,15,09,12.10
2019,04,26,15,10,12.20
2019,04,26,15,11,12.20
2019,04,26,15,12,12.10
2019,04,26,15,13,12.10
2019,04,26,15,14,12.10
2019,04,26,15,15,12.20
2019,04,26,15,16,12.30
2019,04,26,15,17,12.30
2019,04,26,15,18,12.30
2019,04,26,15,19,12.30
2019,04,26,15,20,12.30
2019,04,26,15,21,12.30
2019,04,26,15,22,12.40
2019,04,26,15,23,12.50
2019,04,26,15,24,12.60
2019,04,26,15,25,12.70
2019,04,26,15,26,12.60
2019,04,26,15,27,12.60
2019,04,26,15,28,12.60
2019,04,26,15,29,12.70
2019,04,26,15,30,12.80
2019,04,26,15,31,12.80
2019,04,26,15,32,12.80
2019,04,26,15,33,12.80
2019,04,26,15,34,12.70
2019,04,26,15,35,12.60
2019,04,26,15,36,12.50
2019,04,26,15,37,12.30
2019,04,26,15,38,12.30
2019,04,26,15,39,12.30
2019,04,26,15,40,12.30
2019,04,26,15,41,12.30
2019,04,26,15,42,12.30
2019,04,26,15,43,12.20
2019,04,26,15,44,12.30
2019,04,26,15,45,12.20
2019,04,26,15,46,12.20
2019,04,26,15,47,12.10
2019,04,26,15,48,12.00
2019,04,26,15,49,12.00
2019,04,26,15,50,11.90
2019,04,26,15,51,11.90
2019,04,26,15,52,11.80
2019,04,26,15,53,11.80
2019,04,26,15,54,11.80
2019,04,26,15,55,11.90
2019,04,26,15,56,11.80
2019,04,26,15,57,11.80
2019,04,26,15,58,11.70
2019,04,26,15,59,11.70
2019,04,26,16,00,11.70
2019,04,26,16,01,11.70
2019,04,26,16,02,11.80
2019,04,26,16,03,11.80
2019,04,26,16,04,11.90
2019,04,26,16,05,12.10
2019,04,26,16,06,12.20
2019,04,26,16,07,12.10
2019,04,26,16,08,12.20
2019,04,26,16,09,12.20
2019,04,26,16,10,12.30
2019,04,26,16,11,12.30
2019,04,26,16,12,12.30
2019,04,26,16,13,12.30
2019,04,26,16,14,12.30
2019,04,26,16,15,12.30
2019,04,26,16,16,12.20
2019,04,26,16,17,12.20
2019,04,26,16,18,12.20
2019,04,26,16,19,12.20
2019,04,26,16,20,12.20
2019,04,26,16,21,12.30
2019,04,26,16,22,12.30
2019,04,26,16,23,12.30
2019,04,26,16,24,12.30
2019,04,26,16,25,12.30
2019,04,26,16,26,12.20
2019,04,26,16,27,12.10
2019,04,26,16,28,12.00
2019,04,26,16,29,12.00
2019,04,26,16,30,11.90
2019,04,26,16,31,11.90
2019,04,26,16,32,11.80
2019,04,26,16,33,11.80
2019,04,26,16,34,11.80
2019,04,26,16,35,11.80
2019,04,26,16,36,11.80
2019,04,26,16,37,11.70
2019,04,26,16,38,11.70
2019,04,26,16,39,11.60
2019,04,26,16,40,11.60
2019,04,26,16,41,11.60
2019,04,26,16,42,11.60
2019,04,26,16,43,11.60
2019,04,26,16,44,11.60
2019,04,26,16,45,11.60
2019,04,26,16,46,11.60
2019,04,26,16,47,11.60
2019,04,26,16,48,11.60
2019,04,26,16,49,11.60
2019,04,26,16,50,11.60
2019,04,26,16,51,11.60
2019,04,26,16,52,11.60
2019,04,26,16,53,11.60
2019,04,26,16,54,11.60
2019,04,26,16,55,11.60
2019,04,26,16,56,11.60
2019,04,26,16,57,11.60
2019,04,26,16,58,11.60
2019,04,26,16,59,11.70
2019,04,26,17,00,11.70
2019,04,26,17,01,11.80
2019,04,26,17,02,11.70
2019,04,26,17,03,11.70
2019,04,26,17,04,11.60
2019,04,26,17,05,11.70
2019,04,26,17,06,11.70
2019,04,26,17,07,11.80
2019,04,26,17,08,11.80
2019,04,26,17,09,11.80
2019,04,26,17,10,11.70
2019,04,26,17,11,11.60
2019,04,26,17,12,11.60
2019,04,26,17,13,11.50
2019,04,26,17,14,11.40
2019,04,26,17,15,11.40
2019,04,26,17,16,11.40
2019,04,26,17,17,11.40
2019,04,26,17,18,11.40
2019,04,26,17,19,11.40
2019,04,26,17,20,11.30
2019,04,26,17,21,11.20
2019,04,26,17,22,11.20
2019,04,26,17,23,11.20
2019,04,26,17,24,11.10
2019,04,26,17,25,11.10
2019,04,26,17,26,11.10
2019,04,26,17,27,11.10
2019,04,26,17,28,11.20
2019,04,26,17,29,11.20
2019,04,26,17,30,11.10
2019,04,26,17,31,11.10
2019,04,26,17,32,11.10
2019,04,26,17,33,11.00
2019,04,26,17,34,10.90
2019,04,26,17,35,11.00
2019,04,26,17,36,11.10
2019,04,26,17,37,11.10
2019,04,26,17,38,11.00
2019,04,26,17,39,10.90
2019,04,26,17,40,10.90
2019,04,26,17,41,10.90